Simultaneous Nadir Overpasses (SNOs) Predictions

Prediction of SNOs near US between AQUA and NPP Satellite Orbit:

Table of predicted SNOs near US for the next 10.0 days since TLE Epoch: 7/3/2021
Index Date (AQUA) Time (AQUA) AQUA Lat,Lon Date (NPP) Time (NPP) NPP Lat,Lon Distance(km) Time Diff (sec)
1 07/03/2021 19:06:10 49.99, -92.53 07/03/2021 19:01:15 49.68, -94.47 143.41 295
2 07/03/2021 20:45:03 49.98,-117.25 07/03/2021 20:42:43 49.57,-119.79 188.69 140
3 07/06/2021 08:34:53 20.03,-101.87 07/06/2021 08:26:33 18.21,-102.53 213.98 500
4 07/06/2021 10:11:46 27.27,-124.84 07/06/2021 10:05:26 27.41,-125.59 75.20 380
5 07/09/2021 07:18:37 49.90, -75.98 07/09/2021 07:20:18 50.36, -78.21 166.90 101
6 07/09/2021 08:57:30 49.91,-100.70 07/09/2021 09:01:46 50.47,-103.54 211.34 256
7 07/11/2021 18:16:47 49.95, -80.17 07/11/2021 18:10:36 49.64, -81.78 120.98 371
8 07/11/2021 19:55:41 50.00,-104.91 07/11/2021 19:52:05 49.58,-107.13 166.16 216
9 07/11/2021 21:30:51 36.70,-124.99 07/11/2021 21:29:44 36.21,-127.63 241.95 67
